Weather History for KNBT - March, 2014

Change the Weather History Date:

Wednesday, March 19, 2014

  Actual Average (KMRH) Record (KMRH)
Temperature  
Mean Temperature 52 °F -  
Max Temperature 61 °F 63 °F 76 °F (1974)
Min Temperature 46 °F 43 °F 22 °F (1967)
Degree Days  
Heating Degree Days 12    
Growing Degree Days 2 (Base 50)    
Moisture  
Dew Point 50 °F    
Average Humidity 92    
Maximum Humidity 100    
Minimum Humidity 81    
Precipitation  
Precipitation 0.00 in - - ()
Sea Level Pressure  
Sea Level Pressure 30.05 in    
Wind  
Wind Speed 13 mph (NW)    
Max Wind Speed 17 mph    
Max Gust Speed 24 mph    
Visibility 6 miles    
Events Rain    
Averages and records for this station are not official NWS values.
T = Trace of Precipitation, MM = Missing Value Source: NWS Daily Summary

Daily Weather History Graph

Daily Weather History Graph

Search for Another Location

Airport or City:

Trip Planner

Search our weather history database for the weather conditions in past years. The results will help you decide how hot, cold, wet, or windy it might be!

Date:

Astronomy

Mar. 19, 2014 Rise Set
Actual Time 7:10 AM EDT 7:16 PM EDT
Civil Twilight 6:45 AM EDT 7:42 PM EDT
Nautical Twilight 6:16 AM EDT 8:11 PM EDT
Astronomical Twilight 5:46 AM EDT 8:41 PM EDT
Moon 10:24 PM EDT (3/19) 8:42 AM EDT (3/19)
Length of Visible Light 12h 56m
Length of Day
12h 05m
Waning Gibbous, 91% of the Moon is Illuminated
Mar 19
Waning Gibbous
Mar 23
Last Quarter
Mar 30
New
Apr 7
First Quarter
Apr 15
Full

Hourly Weather History & Observations

Time (EDT) Temp. Dew Point Humidity Pressure Visibility Wind Dir Wind Speed Gust Speed Precip Events Conditions
12:56 AM 46.9 °F 45.0 °F 93% 30.08 in - North 17.3 mph - N/A   Overcast
1:56 AM 46.9 °F 44.1 °F 90% 30.09 in - North 16.1 mph 24.2 mph N/A   Overcast
2:56 AM 46.9 °F 44.1 °F 90% 30.07 in - North 17.3 mph - N/A   Overcast
3:56 AM 46.9 °F 45.0 °F 93% 30.06 in - North 16.1 mph 23.0 mph N/A   Overcast
4:29 AM 46.9 °F 46.0 °F 97% 30.05 in - North 16.1 mph - N/A   Overcast
4:56 AM 46.9 °F 46.0 °F 97% 30.07 in - North 15.0 mph - N/A   Overcast
5:56 AM 46.9 °F 46.0 °F 97% 30.08 in - North 13.8 mph - N/A   Overcast
6:56 AM 46.9 °F 46.0 °F 97% 30.10 in - North 12.7 mph - N/A   Overcast
7:56 AM 46.9 °F 46.0 °F 97% 30.12 in - North 13.8 mph - N/A   Overcast
8:56 AM 46.9 °F 46.0 °F 97% 30.12 in - NNW 16.1 mph - N/A Rain Light Rain
9:56 AM 46.9 °F 46.9 °F 100% 30.12 in - North 12.7 mph - N/A Rain Light Rain
10:56 AM 48.9 °F 48.0 °F 97% 30.12 in - North 12.7 mph - N/A Rain Light Rain
11:37 AM 51.1 °F 48.9 °F 92% 30.09 in - North 10.4 mph - N/A   Overcast
11:56 AM 51.1 °F 48.9 °F 92% 30.12 in - NNW 12.7 mph - N/A   Overcast
12:56 PM 54.0 °F 51.1 °F 90% 30.10 in - North 6.9 mph - N/A   Overcast
1:08 PM 54.0 °F 51.1 °F 90% 30.07 in - North 8.1 mph - N/A   Overcast
1:25 PM 55.0 °F 52.0 °F 89% 30.06 in - North 6.9 mph - N/A   Mostly Cloudy
1:48 PM 54.0 °F 51.1 °F 90% 30.06 in 8.0 mi NNW 8.1 mph - N/A   Overcast
1:56 PM 54.0 °F 51.1 °F 90% 30.06 in 8.0 mi NW 8.1 mph - N/A   Overcast
2:56 PM 55.9 °F 53.1 °F 90% 30.03 in 9.0 mi NW 8.1 mph - N/A   Overcast
3:10 PM 57.9 °F 52.0 °F 81% 30.02 in 10.0 mi NW 8.1 mph - N/A   Overcast
3:45 PM 59.0 °F 53.1 °F 81% 30.00 in 10.0 mi NNW 5.8 mph - N/A   Overcast
3:56 PM 59.0 °F 53.1 °F 81% 30.01 in 10.0 mi NW 5.8 mph - N/A   Overcast
4:56 PM 59.0 °F 53.1 °F 81% 30.01 in 8.0 mi NW 8.1 mph - N/A   Overcast
7:56 PM 59.0 °F 55.0 °F 87% 29.98 in 9.0 mi Calm Calm - N/A   Overcast
8:04 PM 59.0 °F 54.0 °F 83% 29.98 in 9.0 mi WNW 4.6 mph - N/A   Overcast
8:34 PM 59.0 °F 55.0 °F 87% 29.98 in 9.0 mi West 8.1 mph - N/A   Overcast
8:56 PM 57.0 °F 54.0 °F 89% 30.00 in 9.0 mi West 13.8 mph - N/A   Overcast
9:00 PM 55.9 °F 54.0 °F 93% 29.98 in 6.0 mi West 13.8 mph - N/A   Overcast
9:08 PM 55.9 °F 54.0 °F 93% 29.99 in 2.5 mi West 13.8 mph - N/A   Overcast
9:29 PM 55.0 °F 54.0 °F 96% 29.99 in 3.0 mi West 11.5 mph - N/A   Overcast
9:41 PM 55.0 °F 54.0 °F 96% 29.99 in 2.0 mi West 11.5 mph - N/A   Overcast
9:56 PM 55.0 °F 54.0 °F 96% 30.01 in 1.8 mi West 10.4 mph - N/A   Overcast
10:56 PM 54.0 °F 53.1 °F 97% 30.01 in 1.5 mi West 9.2 mph - N/A   Overcast
11:56 PM 53.1 °F 52.0 °F 96% 30.00 in 0.8 mi West 9.2 mph - N/A   Mist